Regional Weather Roundup
Issued by NWS Charleston, SC

Home | Current Version | Previous Version | Text Only | Print | Product List | Glossary On
Versions: 1 2 3 4 5 6 7 8 9 10 11 12 13 14 15 16 17 18 19 20 21 22 23 24 25 26 27 28 29 30 31 32 33 34 35 36 37 38 39 40 41 42 43 44 45 46 47 48 49 50
000
ASUS42 KCHS 010627
RWRCHS

REGIONAL WEATHER ROUNDUP
NATIONAL WEATHER SERVICE CHARLESTON SC
200 AM EDT TUE SEP 01 2015

NOTE: "FAIR" INDICATES FEW OR NO CLOUDS BELOW 12,000 FEET WITH NO
SIGNIFICANT WEATHER AND/OR OBSTRUCTIONS TO VISIBILITY.

NOT ALL STATIONS ARE QUALITY CONTROLLED BY THE NATIONAL
WEATHER SERVICE. USE DATA WITH CAUTION...ESPECIALLY
DEWPOINT OBSERVATIONS.

SCZ027-030-031-034>040-042>050-010700-
...SOUTHEAST SOUTH CAROLINA...

CITY           SKY/WX    TMP DP  RH WIND       PRES   REMARKS
N CHARLESTON   FAIR      73  71  93 CALM      30.08S
6HR MIN TEMP:  73; 6HR MAX TEMP:  81;

WATERFRONT PRK   N/A     78  74  87 CALM      30.06S
MOUNT PLEASANT LGT RAIN  73  73 100 CALM      30.08S
JOHNS ISLAND   FAIR      73  72  94 CALM      30.08F
PINOPOLIS        N/A     81  73  78 VRB3      30.00F
MONCKS CORNER  FAIR      72  70  94 CALM      30.07F
SUMMERVILLE    FAIR      70  70 100 CALM      30.09S
BEAUFORT MCAS  FAIR      73  72  96 CALM      30.09S
6HR MIN TEMP:  73; 6HR MAX TEMP:  80;

BEAUFORT ARPT  FAIR      73  73 100 CALM      30.08F
HILTON HEAD IS FAIR      73  73 100 CALM      30.09F
WALTERBORO     FAIR      72  70  94 CALM      30.09S
ALLENDALE      FAIR      70  70 100 CALM      30.08S

...SOUTHERN MIDLANDS AND PEE DEE...

CITY           SKY/WX    TMP DP  RH WIND       PRES   REMARKS
GEORGETOWN     NOT AVBL
KINGSTREE      NOT AVBL
ORANGEBURG     FAIR      71  69  93 CALM      30.09F
6HR MIN TEMP:  71; 6HR MAX TEMP:  80; 6HR PCP: TRACE;

BARNWELL       FAIR      70  70 100 CALM      30.10S
AIKEN          FAIR      68  64  88 CALM      30.13F
MANNING        FAIR      68  68 100 CALM      30.08F
COLUMBIA       FAIR      72  67  84 CALM      30.09S
6HR MIN TEMP:  72; 6HR MAX TEMP:  82;

SUMTER         FAIR      71  69  93 CALM      30.07S
6HR MIN TEMP:  71; 6HR MAX TEMP:  80; 6HR PCP: TRACE;

FLORENCE       FAIR      71  69  93 CALM      30.08F
6HR MIN TEMP:  70; 6HR MAX TEMP:  78;

MYRTLE BEACH   FAIR      73  70  88 NW5       30.09S
N MYRTLE BEACH CLOUDY   N/A N/A N/A VRB3      30.06F FOG

$$

GAZ063-065-086>088-099>101-113>116-118-119-134>141-150-010700-
...SOUTHEAST GEORGIA...

CITY           SKY/WX    TMP DP  RH WIND       PRES   REMARKS
SAVANNAH ARPT  MOCLDY    74  72  93 CALM      30.09F
6HR MIN TEMP:  73; 6HR MAX TEMP:  80;

HUNTER AAF     FAIR      73  73 100 CALM      30.06F
6HR MIN TEMP:  74; 6HR MAX TEMP:  81;

FORT STEWART   FAIR      73  71  94 CALM      30.06F
6HR MIN TEMP:  73; 6HR MAX TEMP:  80; 6HR PCP: TRACE;

STATESBORO     FAIR      68  32  26 CALM      30.09F
SYLVANIA       FAIR      69  69 100 CALM      30.10F
CLAXTON        NOT AVBL

...CSRA...CENTRAL AND FAR SOUTHEAST GEORGIA...

CITY           SKY/WX    TMP DP  RH WIND       PRES   REMARKS
THOMSON        FAIR      69  69 100 CALM      30.14F
AUGUSTA-BUSH   FAIR      68  67  96 CALM      30.09S FOG
6HR MIN TEMP:  68; 6HR MAX TEMP:  77;

AUGUSTA-DANIEL FAIR      77  68  73 CALM      30.10F
SWAINSBORO     FAIR     N/A N/A N/A CALM      30.10S
VIDALIA        FAIR      72  70  94 CALM      30.09S
EASTMAN        FOG       70  70 100 CALM      30.11F VSB 3/4
HAZLEHURST     FAIR      74  74  99 CALM      30.07F
ALMA           FAIR      72  71  97 CALM      30.08S
6HR MIN TEMP:  72; 6HR MAX TEMP:  82;

WAYCROSS       CLOUDY    78  78 100 CALM      30.07S
JESUP          CLOUDY    79  77  94 CALM      30.07F
BAXLEY         FAIR      73  72  94 CALM      30.08S
BRUNSWICK        N/A     73  73 100 CALM      30.07F VSB 3/4
SAINT SIMONS   FAIR      79  76  90 CALM      30.06F
6HR MIN TEMP:  79; 6HR MAX TEMP:  81;


$$

SCZ027-028-034-036>038-045-046-048>050-GAZ119-141-010700-
...LAKE AND SUPPLEMENTAL COASTAL OBSERVATIONS...

STATION/POSITION TIME  TEMP    WIND        PRES    WAVE   SWELL
                       AIR SEA DIR/SP/G            HT/PER HT/PER/DIR
                 (UTC) (F)     (DEG/KT/KT) (MB)    (FT/S) (FT/S/D)
UPR LAKE MARION  NOT AVBL
WINYAH BAY       0500   75     240/  2     1018.0S
LAKE MURRAY      0500   75        CALM     1019.0R
ACE BASIN NERRS  NOT AVBL
FORT PULASKI     0600   79 83  320/  3/  4 1019.1F
SAPELO ISLAND    0600   77      90/  1     1018.0F

$$

ANZ835-935-AMZ111-154-330-350-352-354-370-450-454-472-010700-
...C-MAN AND BUOY OBSERVATIONS...

STATION/POSITION TIME  TEMP    WIND        PRES    WAVE   SWELL
                       AIR SEA DIR/SP/G            HT/PER HT/PER/DIR
                 (UTC) (F)     (DEG/KT/KT) (MB)    (FT/S) (FT/S/D)
BUOY 41004       0550   81 82  240/  8/  8 1018.2S   3/ 8   3/ 8
BUOY 41008       0550   82 84  150/  2/  4 1018.7F   2/ 9   2/ 90/ 9
FOLLY BEACH CMAN 0600   77     280/  3/  3 1018.6F
CAPERS NEARSHORE 0508   81     320/  6/  8 1018.6F
FRIPP NEARSHORE  0500   80      CALM  /  2 1018.7R


STATION/POSITION TIME  TEMP    WIND        PRES    WAVE   SWELL
                       AIR SEA DIR/SP/G            HT/PER HT/PER/DIR
                 (UTC) (F)     (DEG/KT/KT) (MB)    (FT/S) (FT/S/D)
5E ST. MARYS GA  0521      85                N/A     2/ 9
FRYING PAN BUOY  0550   81 81  260/ 10/ 12 1018.1F   4/ 6   3/180/ 6
BUOY 41025       0550   81 84  180/ 14/ 16 1017.0F   4/ 8   2/150/ 8
CAPE LOOKOUT NC  0600   78     230/  4/  5 1016.2F
BUOY 41002       0550   84 84  220/ 12/ 14 1019.0F   4/ 6   3/190/ 6
BUOY 41010       0520   84 85  170/  8/ 10 1018.8F
ST AUGUSTINE FL  0600   82 84  140/  6/  7 1018.3F


$$


USA.gov is the U.S. government's official web portal to all federal, state and local government web resources and services.